EHI
8 7 5 2 1 2 3 3 1 0 0 0 0 0 0 0 0 0 0 0 0 1 2 1 0 0 0 1 2 2 2 1 0 0 0 1 0 0 0 0 0 0 0
11 9 6 4 3 3 3 2 2 1 0 0 1 1 0 0 0 0 0 1 1 1 2 2 1 1 1 1 1 2 1 1 1 0 0 1 0 0 0 0 0 0 0
14 12 9 6 4 3 3 2 3 3 2 2 2 2 1 0 0 0 1 2 2 2 2 3 2 2 2 2 2 2 2 2 2 1 0 1 1 1 1 1 0 0 0
15 14 12 9 7 6 6 6 6 5 4 3 2 2 1 1 1 1 2 4 5 5 4 3 2 2 2 2 2 3 3 3 2 1 0 0 1 2 3 3 2 2 2
16 16 15 14 11 11 12 12 9 6 4 3 2 2 1 1 1 2 4 5 6 6 5 4 3 1 1 1 1 1 2 3 2 1 0 1 2 4 5 5 4 3 4
19 18 17 17 17 15 14 13 11 8 7 5 5 4 3 1 1 1 3 4 4 4 4 4 2 1 0 0 0 0 1 2 2 1 1 1 2 4 5 4 3 2 3
22 19 19 20 19 16 15 14 13 13 11 10 9 7 5 2 1 0 1 1 2 2 2 3 1 0 0 0 0 0 0 1 1 0 0 1 2 3 3 2 2 1 1
21 20 20 20 18 16 17 16 15 14 11 8 8 7 6 3 1 0 0 0 1 1 2 1 0 0 0 0 0 0 0 0 0 0 0 1 2 2 1 1 1 1 1
19 19 19 18 17 16 15 14 12 9 6 4 4 5 4 1 0 0 0 0 0 1 1 0 0 0 0 0 0 0 0 1 0 0 0 0 1 1 0 0 1 1 0
18 17 14 13 13 11 10 8 6 3 2 1 1 1 1 0 0 0 0 0 0 0 0 0 0 0 0 0 0 0 0 0 0 0 0 0 0 0 0 0 0 0 0
15 13 9 6 5 5 5 4 2 0 0 0 0 0 0 0 0 0 0 0 0 0 0 0 0 0 0 0 0 0 0 0 0 0 0 0 0 0 0 0 0 0 0
10 7 4 1 1 2 3 2 1 0 0 0 0 0 0 0 0 0 0 0 0 0 0 0 0 0 0 0 0 0 0 0 0 0 0 0 0 0 0 0 0 0 0
4 3 1 0 1 1 1 1 0 0 0 0 0 0 0 0 0 0 0 0 0 0 0 0 0 0 0 0 0 0 0 0 0 0 0 0 0 0 0 0 0 0 0
2 1 0 0 0 0 0 0 0 0 0 0 0 0 0 0 0 0 0 0 0 0 0 0 0 0 0 0 0 0 0 0 0 0 0 0 0 0 0 0 0 0 0
1 0 0 0 0 0 0 0 0 0 0 0 0 0 0 0 0 0 0 0 0 0 0 0 0 0 0 0 0 0 0 0 0 0 0 0 0 0 0 0 0 0 0
0 0 0 0 0 0 0 0 0 0 0 0 0 0 0 0 0 0 0 0 0 0 0 0 0 0 0 0 0 0 0 0 0 0 0 0 0 0 0 0 0 0 0
0 0 0 0 0 0 0 0 0 0 0 0 0 0 0 0 0 0 0 0 0 0 0 0 0 0 0 0 0 0 0 0 0 0 0 0 0 0 0 0 0 0 0
0 0 0 0 0 0 0 0 0 0 0 0 0 0 0 0 0 0 0 0 0 0 0 0 0 0 0 0 0 0 0 0 0 0 0 0 0 0 0 0 0 0 0
0 0 0 0 0 0 0 0 0 0 0 0 0 0 0 0 0 0 0 0 0 0 0 0 0 0 0 0 0 0 0 0 0 0 0 0 0 0 0 0 0 0 0
0 0 0 0 0 0 0 0 0 0 0 0 0 0 0 0 0 0 0 0 0 0 0 0 0 0 0 0 0 0 0 0 0 0 0 0 0 0 0 0 0 0 0
0 0 0 0 0 0 0 0 0 0 0 0 0 0 0 0 0 0 0 0 0 0 0 0 0 0 0 0 0 0 0 0 0 0 0 0 0 0 0 0 0 0 0
0 0 0 0 0 0 0 0 0 0 0 0 0 0 0 0 0 0 0 0 0 0 0 0 0 0 0 0 0 0 0 0 0 0 0 0 0 0 0 0 0 0 0
0 0 0 0 0 0 0 0 0 0 0 0 0 0 0 0 0 0 0 0 0 0 0 0 0 0 0 0 0 0 0 0 0 0 0 0 0 0 0 0 0 0 0
0 0 0 0 0 0 0 0 0 0 0 0 0 0 0 0 0 0 0 0 0 0 0 0 0 0 0 0 0 0 0 0 0 0 0 0 0 0 0 0 0 0 0
0 0 0 0 0 0 0 0 0 0 0 0 0 0 0 0 0 0 0 0 0 0 0 0 0 0 0 0 0 0 0 0 0 0 0 0 0 0 0 0 0 0 0
0 0 0 0 0 0 0 0 0 0 0 0 0 0 0 0 0 0 0 0 0 0 0 0 0 0 0 0 0 0 0 0 0 0 0 0 0 0 0 0 0 0 0
Wind_Speed
11 10 10 9 9 9 8 8 7 7 7 7 7 7 7 7 7 6 6 6 7 6 6 6 7 6 5 5 5 5 5 6 7 6 4 4 5 8 6 6 8 8 9
11 10 9 9 9 9 9 8 7 7 7 7 7 7 7 6 6 7 7 7 7 7 7 7 8 6 7 7 6 7 6 6 7 8 7 6 7 8 8 8 9 8 9
11 10 10 10 10 9 8 7 7 7 6 6 7 7 6 6 6 6 7 7 7 8 7 8 8 8 8 7 7 7 7 7 7 8 8 6 6 7 7 9 10 8 10
11 11 10 10 9 8 7 7 6 6 6 6 6 5 5 5 5 6 6 7 7 7 7 7 7 7 8 8 7 8 8 8 7 8 8 7 7 7 7 8 8 8 8
11 10 10 9 9 8 7 7 6 5 5 5 4 4 3 3 3 4 5 5 5 5 5 5 5 3 3 4 6 6 6 7 7 8 8 8 7 6 6 7 8 8 8
10 10 10 9 9 8 7 6 5 5 4 3 3 2 1 1 4 4 3 3 3 3 3 3 2 1 2 3 4 6 6 7 8 7 7 8 8 7 6 7 8 9 9
9 9 9 9 8 7 7 6 6 5 4 4 3 3 3 5 6 4 2 1 1 1 2 2 1 3 3 2 2 5 5 4 4 7 9 8 7 6 7 8 8 10 10
9 8 8 8 8 8 7 6 6 5 5 4 4 4 5 7 7 5 3 1 2 3 3 3 2 3 5 5 5 3 3 2 3 4 6 7 7 7 7 9 10 11 12
9 8 8 8 8 8 8 7 7 6 7 6 7 7 8 9 10 8 5 2 3 4 4 4 3 3 6 7 5 4 5 4 3 3 5 7 8 9 8 8 10 10 12
9 9 8 8 9 9 9 8 8 8 8 8 9 8 9 9 10 10 7 3 3 3 2 3 6 5 6 7 6 6 6 6 7 7 7 8 9 9 10 9 10 10 11
11 11 11 10 10 10 10 9 9 8 8 8 8 8 9 9 10 11 10 5 4 3 3 2 4 6 5 5 6 6 6 8 9 8 8 8 7 6 7 7 7 8 10
12 12 12 11 9 10 10 9 8 8 8 7 7 6 6 7 8 8 8 7 6 4 4 4 5 4 5 6 5 4 7 9 8 7 7 7 7 7 6 7 8 10 10
13 13 12 11 10 9 9 9 7 5 5 5 4 4 4 4 5 5 4 3 3 3 3 3 3 5 7 6 4 6 8 7 7 7 8 8 8 8 8 8 10 10 12
13 12 10 10 10 9 6 6 6 5 5 4 4 3 3 4 5 5 3 3 1 2 4 2 7 8 8 6 5 5 5 5 7 8 8 8 8 8 8 8 9 9 10
12 10 10 10 10 9 9 9 8 9 7 5 4 4 4 5 7 9 8 7 8 8 9 6 5 5 6 6 6 6 6 6 6 7 8 8 9 9 9 9 8 9 10
10 8 7 7 7 7 8 9 14 11 12 13 12 8 8 9 6 6 5 5 6 9 9 6 6 7 7 7 8 8 7 7 8 8 9 9 9 9 9 9 9 9 10
8 7 6 6 6 6 6 6 7 8 9 11 11 10 9 6 4 4 4 6 7 9 6 6 6 7 7 7 8 8 8 8 8 8 8 9 9 9 9 9 10 10 10
8 7 5 5 5 5 4 4 4 4 5 6 7 7 5 3 2 3 7 9 4 3 6 6 7 7 7 7 8 8 8 8 8 8 8 8 9 9 9 10 10 11 11
6 5 5 5 4 4 4 3 3 3 3 3 3 5 3 4 5 3 6 5 6 6 6 6 7 7 7 7 7 8 8 8 9 9 8 9 9 9 9 10 11 13 12
7 7 4 4 4 4 3 3 3 3 3 3 3 4 3 3 3 3 4 6 6 6 7 7 7 7 7 7 7 8 8 8 9 9 9 9 9 9 10 12 11 11 11
6 6 4 3 4 4 4 4 4 3 3 3 4 5 6 6 5 6 6 6 6 7 7 7 7 8 7 7 7 9 11 9 9 9 9 9 10 10 10 10 11 11 11
4 4 4 4 5 4 4 4 3 3 2 2 2 3 1 4 5 6 6 6 6 6 7 7 7 7 7 8 8 9 10 10 10 10 10 11 10 11 11 11 11 11 11
4 5 5 5 5 4 2 3 3 3 3 3 4 4 4 5 5 6 6 7 7 7 7 7 7 7 8 8 8 8 9 9 10 12 12 12 11 11 11 11 13 13 12
4 5 5 5 4 3 3 3 3 3 4 4 4 4 5 5 5 6 7 6 7 7 7 7 7 10 12 10 8 8 8 10 13 11 14 13 13 12 11 11 12 13 12
5 4 4 4 4 3 3 3 4 4 4 4 4 4 5 5 6 6 6 6 8 8 9 8 7 9 12 13 12 11 11 11 10 12 12 12 13 13 12 13 12 13 13
5 5 4 4 3 3 3 3 3 3 3 4 4 4 5 5 6 6 6 7 8 8 8 8 10 12 13 11 13 13 10 10 11 12 12 11 12 11 12 11 15 13 13
Wind_Direction
179 180 178 179 180 181 185 187 186 187 184 189 195 201 206 207 206 211 226 212 219 221 222 223 229 251 252 247 241 246 249 256 265 271 255 233 236 263 252 248 250 244 233
175 172 174 173 175 181 185 188 189 191 194 196 200 206 212 212 211 217 224 222 224 228 229 231 234 229 232 252 254 251 252 256 262 271 272 255 233 242 251 256 258 251 257
170 171 172 174 176 182 185 186 191 193 198 203 203 210 217 218 219 225 231 233 233 235 237 236 238 239 237 241 244 251 250 244 247 262 265 267 260 250 250 250 254 256 265
169 170 172 176 176 176 179 183 189 192 198 205 210 217 220 222 228 233 234 237 240 241 241 242 243 242 242 247 247 250 258 262 255 257 264 263 257 253 251 261 261 246 252
169 169 172 171 169 172 173 178 180 186 193 194 201 211 222 230 247 253 248 245 247 249 246 247 249 259 296 280 276 269 262 258 260 259 262 266 265 267 264 270 276 280 270
169 169 165 162 163 165 166 169 170 176 182 176 183 181 190 7 48 36 310 279 270 263 266 267 256 243 266 254 279 289 293 279 277 277 276 278 285 289 292 286 287 283 281
158 156 153 155 155 155 159 158 157 153 144 138 135 123 98 60 53 62 46 331 7 4 356 340 340 32 15 328 268 242 255 262 283 288 288 294 300 305 305 293 288 288 286
143 144 144 145 144 142 138 134 129 123 120 115 109 102 88 62 49 49 43 82 60 53 47 42 35 29 19 349 321 310 300 294 282 273 286 290 297 307 295 285 284 279 273
134 135 136 136 133 128 123 120 115 111 103 97 88 85 81 65 44 35 10 81 77 65 53 49 34 37 24 350 321 313 305 296 251 247 271 275 281 276 275 280 276 275 277
123 121 120 120 119 117 114 111 107 105 102 97 87 80 76 68 50 37 7 39 60 53 62 76 66 33 16 352 325 315 308 314 315 300 277 263 261 256 236 249 271 277 281
109 107 104 104 106 106 103 102 103 102 98 94 92 85 78 70 68 50 30 24 17 6 4 359 53 42 4 337 311 311 322 312 298 290 286 282 275 270 261 254 260 272 281
103 99 98 99 99 101 100 98 97 103 106 101 96 89 86 77 60 58 50 37 0 357 352 359 31 13 330 306 302 321 299 286 283 287 288 288 290 291 294 296 290 282 276
102 99 98 96 93 97 101 102 102 99 96 95 93 88 80 73 84 85 69 50 5 346 357 16 323 287 280 266 230 264 278 284 301 301 300 303 306 307 303 294 283 276 272
104 102 102 100 97 89 86 87 84 79 82 86 79 75 78 75 44 23 17 21 356 337 338 266 230 240 256 279 284 271 291 320 319 307 307 307 306 302 297 298 299 299 293
105 105 103 98 94 88 74 54 63 58 47 45 55 53 42 54 42 18 3 8 357 356 323 306 320 331 327 333 331 330 324 320 314 313 309 307 306 306 306 307 303 300 295
107 106 106 106 105 106 105 90 59 68 71 64 51 44 67 64 52 32 21 359 333 320 309 329 342 339 338 338 334 330 329 330 329 323 318 316 313 311 308 306 303 299 296
99 100 103 106 111 112 113 115 116 101 87 81 73 65 65 69 52 20 345 316 290 292 314 350 347 343 340 335 332 331 331 333 331 321 318 316 314 311 308 305 303 300 297
99 95 98 100 100 100 100 102 105 114 124 113 104 99 100 101 70 340 314 301 307 323 352 349 342 340 337 333 332 331 327 326 324 321 318 316 313 310 307 306 304 302 302
97 98 94 96 98 96 96 94 87 81 77 83 103 125 153 189 194 239 294 335 354 352 352 346 341 339 337 334 331 327 323 320 320 317 313 314 311 308 305 304 302 300 295
91 75 81 100 100 98 89 78 74 70 67 61 48 33 8 324 343 13 356 359 349 350 347 342 339 334 332 330 326 324 322 319 319 317 318 316 312 307 304 303 301 300 298
105 106 109 100 87 81 78 72 66 58 53 45 53 55 344 331 359 4 356 357 352 348 345 340 333 332 333 329 329 325 322 321 323 322 319 315 312 309 305 300 298 295 295
102 106 102 91 89 79 74 75 69 66 55 33 34 94 256 323 3 1 358 355 353 347 343 337 331 332 335 334 329 324 322 323 326 325 319 314 310 305 302 300 298 299 299
100 100 96 91 92 98 96 80 70 60 48 36 23 14 12 5 360 1 356 352 348 342 341 336 330 333 339 334 327 323 323 330 330 322 314 308 306 303 301 300 300 301 300
97 96 99 104 101 94 80 72 62 54 45 32 21 13 9 4 358 358 350 350 345 342 343 338 334 334 336 333 328 327 344 344 328 313 308 303 301 299 299 299 299 300 300
100 97 97 91 89 83 74 62 53 45 39 28 19 9 5 0 357 356 352 350 343 341 341 338 337 337 335 333 337 340 348 327 312 312 305 296 295 296 298 300 301 302 302
98 96 94 90 82 74 66 58 54 44 34 26 17 8 1 357 356 355 351 349 342 341 341 339 340 339 335 338 348 341 324 316 313 308 301 295 295 300 307 306 307 306 305